Regional Weather Roundup
Issued by NWS

Home | Current Version | Previous Version | Text Only | Print | Product List | Glossary Off
Versions: 1 2 3 4 5 6 7 8 9 10 11 12 13 14 15 16 17 18 19 20 21 22 23 24 25 26 27 28 29 30 31 32 33 34 35 36 37 38 39 40 41 42 43 44 45 46 47 48 49 50

000
ASUS45 KBOU 261907
RWRCO

WEATHER ROUNDUP FOR COLORADO
NATIONAL WEATHER SERVICE DENVER/BOULDER CO
1200 PM MST WED NOV 26 2014

NOTE: "FAIR" INDICATES FEW OR NO CLOUDS BELOW 12000 FEET WITH NO
SIGNIFICANT WEATHER AND/OR OBSTRUCTIONS TO VISIBILITY.

COZ001>005-013-030-031-262000-
...NORTHWEST COLORADO...

CITY           SKY/WX    TMP DP  RH WIND       PRES   REMARKS
CRAIG          MOSUNNY   46  29  51 W12       30.31F
HAYDEN         MOSUNNY   39  28  65 N7        30.32S
MEEKER         SUNNY     45  27  49 N3        30.35F
MOUNT WERNER   NOT AVBL
STEAMBOAT SPGS CLOUDY    38  28  68 CALM      30.32S
WALDEN         CLOUDY    36  27  69 SW17      30.25S
$$

COZ006>008-011-262000-
...WEST CENTRAL VALLEYS...

CITY           SKY/WX    TMP DP  RH WIND       PRES   REMARKS
GRAND JUNCTION SUNNY     44  19  36 CALM      30.39F
MONTROSE       SUNNY     51  26  37 VRB5      30.39F
EAGLE          MOSUNNY   45  28  53 W12       30.36F
RIFLE          SUNNY     37  25  61 CALM      30.40F
DELTA          SUNNY     49  24  37 SW3       30.38F
NUCLA          SUNNY     50  27  40 W3        30.44F
$$

COZ017>023-064>068-262000-
...SOUTHWEST COLORADO...

CITY           SKY/WX    TMP DP  RH WIND       PRES   REMARKS
DURANGO        SUNNY     44  18  35 E9        30.35F
CORTEZ         SUNNY     55  25  31 NW22G29   30.37F
PAGOSA SPRINGS SUNNY     41  17  38 CALM      30.37F
TELLURIDE      SUNNY     39  26  59 W9        30.46F
WOLF CREEK PAS SUNNY     32  14  47 MISG      30.44S
$$

COZ009-010-012-014-032>034-037-058>063-262000-
...CENTRAL COLORADO...

CITY           SKY/WX    TMP DP  RH WIND       PRES   REMARKS
ASPEN          SUNNY     39  24  55 CALM      30.37F
BUENA VISTA    SUNNY     49  20  31 NW16G24   30.22F
COPPER MTN     CLOUDY    27  21  80 W33G46    30.34F WCI   9
BERTHOUD PASS  NOT AVBL
COTTONWOOD PAS SUNNY     41  19  42 W36G51    30.22F
GUNNISON       MOSUNNY   43  25  49 SW10G20   30.39F
KREMMLING      CLOUDY    37  27  65 W17G23    30.31F
LEADVILLE      CLOUDY    29  22  75 NW14G20   30.35F WCI  18
MONARCH PASS   CLOUDY    21  19  93 MISG      30.42S
SALIDA         SUNNY     52  23  32 W26G36    30.29S
SUNLIGHT       MOSUNNY  N/A N/A N/A SW3       30.43F
WILKERSON PASS MOSUNNY   32  18  55 NW18G37   30.27S WCI  20
$$

COZ069>075-262000-
...SAN LUIS VALLEY/SANGRE DE CRISTO MOUNTAINS...

CITY           SKY/WX    TMP DP  RH WIND       PRES   REMARKS
ALAMOSA        SUNNY     46  19  34 S8        30.32F
LA VETA PASS   NOT AVBL
SAGUACHE       NOT AVBL
$$

COZ035-036-038>040-262000-
...NORTHERN COLORADO FRONT RANGE...

CITY           SKY/WX    TMP DP  RH WIND       PRES   REMARKS
DENVER INTL AP MOSUNNY   36  22  56 SE10      30.16F
DMNS CITY PARK   N/A     41  23  47 SW5       30.14F
AURORA         MOSUNNY   38  23  55 E5        30.16F
FRONT RANGE AP NOT AVBL
ERIE MUNI ARPT SUNNY     38  23  56 E7        30.17F
BOULDER MUN AP SUNNY     37  23  56 E8        30.15F
CENTENNIAL     MOSUNNY   38  23  55 NW3       30.16F
BROOMFIELD     MOSUNNY   36  25  64 SE5       30.16
FORT COLLINS   SUNNY     37  21  52 SE7       30.20F
LONGMONT       SUNNY     41  23  48 E8        30.19F
$$

COZ041-046-047-076>085-087-088-262000-
...PIKES PEAK/PALMER DIVIDE AND SOUTHERN FOOTHILLS...

CITY           SKY/WX    TMP DP  RH WIND       PRES   REMARKS
COLO. SPRINGS  PTSUNNY   33  25  72 SE3       30.20R
A. F. ACADEMY  MOSUNNY   33  24  67 CALM      30.18R
ELLICOTT       NOT AVBL
FALCON         NOT AVBL
FORT CARSON    SUNNY     36  26  66 SE7       30.18S
LIMON          SUNNY     34  23  64 CALM      30.20F
MONUMENT HILL  SUNNY     37  28  70 N3        30.15S
TRINIDAD       SUNNY     38  29  70 E6        30.19F
$$

COZ042>045-048>051-090-091-262000-
...NORTHEAST COLORADO...

CITY           SKY/WX    TMP DP  RH WIND       PRES   REMARKS
GREELEY ARPT   MOSUNNY   36  21  55 E6        30.22F
AKRON          CLOUDY    30  24  78 NE5       30.22F WCI  25
BURLINGTON     CLOUDY    33  25  72 N10       30.26S WCI  25
WRAY           LGT SNOW  33  28  83 N5        30.27F WCI  28
STERLING       FLURRIES  34  30  86 CALM      30.24F
HOLYOKE        LGT SNOW  34  30  86 NW3       30.25F
FORT MORGAN    CLOUDY    33  23  66 SE5       30.22F WCI  28
$$

COZ086-089-092>099-262000-
...SOUTHEAST COLORADO...

CITY           SKY/WX    TMP DP  RH WIND       PRES   REMARKS
PUEBLO         SUNNY     41  25  53 E13       30.20F
LA JUNTA       SUNNY     41  22  46 VRB3      30.24F
LAMAR          SUNNY     43  22  43 CALM      30.25F
SPRINGFIELD      N/A     42  22  44 N7        30.23F
$$



USA.gov is the U.S. government's official web portal to all federal, state and local government web resources and services.